Skip Page Navigation
NASA JPL Caltech
NASA Logo - Jet Propulsion Laboratory + View the NASA Portal
+ Center for Near-Earth Object Studies
JPL Home Earth Solar System Stars & Galaxies Technology
JPL Solar System Dynamics
BODIES ORBITS EPHEMERIDES TOOLS PHYSICAL DATA DISCOVERY FAQ SITE MAP
JPL Small-Body Database Browser
Search: [ help ]  
181453 (2006 TY25)
Classification: Main-belt Asteroid          SPK-ID: 2181453
Ephemeris | Orbit Diagram | Orbital Elements | Mission Design | Physical Parameters | Discovery Circumstances | Close-Approach Data ]

[ show orbit diagram ]
Orbital Elements at Epoch 2459200.5 (2020-Dec-17.0) TDB
Reference: JPL 13 (heliocentric ecliptic J2000)
 Element Value Uncertainty (1-sigma)   Units 
e .05469731634532914 3.6554e-08  
a 2.417824261406122 1.4725e-08 au
q 2.285575762912579 9.0477e-08 au
i 3.416348789863227 5.8618e-06 deg
node 24.04803173178098 7.5932e-05 deg
peri 241.1961674788761 9.5666e-05 deg
M 40.66319515461416 5.9106e-05 deg
tp 2459045.391883695146
(2020-Jul-14.89188370)
0.00022525 TDB
period 1373.205466452656
3.76
1.2544e-05
3.434e-08
d
yr
n .2621603312794646 2.3948e-09 deg/d
Q 2.550072759899664 1.553e-08 au
  Orbit Determination Parameters
   # obs. used (total)      229  
   data-arc span      7966 days (21.81 yr)  
   first obs. used      1997-04-15  
   last obs. used      2019-02-05  
   planetary ephem.      DE441  
   SB-pert. ephem.      SB441-N16  
   condition code      0  
   norm. resid. RMS      .57812  
   source      ORB  
   producer      Otto Matic  
   solution date      2021-Apr-13 21:30:41  

Additional Information
 Earth MOID = 1.27052 au 
 Jupiter MOID = 2.47412 au 
 T_jup = 3.511 
[ show covariance matrix ]

Ephemeris | Orbit Diagram | Orbital Elements | Mission Design | Physical Parameters | Discovery Circumstances | Close-Approach Data ]

Physical Parameter Table
Parameter Symbol Value Units Sigma Reference Notes
absolute magnitude H 17.37   n/a MPCxxxxx  

181453 (2006 TY25)          Discovered 2006-Oct-12 by Spacewatch at Kitt Peak
Reference: 20080321/Numbers.arcLast Updated: 2008-03-26

[ show close-approach data ]
Ephemeris | Orbit Diagram | Orbital Elements | Mission Design | Physical Parameters | Discovery Circumstances | Close-Approach Data ]
ABOUT SSD CREDITS/AWARDS PRIVACY/COPYRIGHT GLOSSARY LINKS
FirstGov 2021-May-11 16:10 UT
(server date/time)  
NASA Home Page
Site Manager:   Ryan S. Park
Webmaster  Alan B. Chamberlin